Regional Weather Roundup
Issued by NWS

Home | Current Version | Previous Version | Text Only | Print | Product List | Glossary Off
Versions: 1 2 3 4 5 6 7 8 9 10 11 12 13 14 15 16 17 18 19 20 21 22 23 24 25 26 27 28 29 30 31 32 33 34 35 36 37 38 39 40 41 42 43 44 45 46 47 48 49 50

000
ASUS43 KDTX 260210
RWRMI
MICHIGAN HOURLY REGIONAL WEATHER ROUNDUP
NATIONAL WEATHER SERVICE DETROIT/PONTIAC MI
ISSUED BY NATIONAL WEATHER SERVICE GRAND RAPIDS MI
1000 PM EDT TUE JUL 25 2017

NOTE: "FAIR" INDICATES FEW OR NO CLOUDS BELOW 12,000 FEET WITH NO
SIGNIFICANT WEATHER AND/OR OBSTRUCTION TO VISIBILITY.

MIZ047>049-052>055-059>063-066>070-074>076-081>083-260300-
SOUTHEAST LOWER MICHIGAN

CITY           SKY/WX    TMP DP  RH WIND       PRES   REMARKS
ADRIAN         CLEAR     67  55  65 SE7       30.20S
ALMA           CLEAR     67  55  64 SW7       30.17R
ANN ARBOR      CLEAR     66  60  81 SE5       30.20R
BAD AXE        CLEAR     64  55  73 CALM      30.20S
DETROIT CITY   CLEAR     70  62  76 S5        30.20S
DETROIT        PTCLDY    69  62  78 SE6       30.20S
FLINT          CLEAR     63  56  78 SE5       30.18F
GROSSE ILE     CLEAR     68  63  84 CALM      30.20R
HILLSDALE      MOCLDY    66  55  68 SE6       30.19S
HOWELL         CLEAR     65  58  77 CALM      30.19S

CITY           SKY/WX    TMP DP  RH WIND       PRES   REMARKS
JACKSON        CLEAR     70  56  61 S5        30.19R
LANSING        CLEAR     70  52  52 SE7       30.17F
MASON          CLEAR     63  57  81 SE5       30.18F
MONROE         CLEAR     67  62  83 CALM      30.19S
MT. CLEMENS    PTCLDY    66  58  75 CALM      30.18R
PONTIAC        PTCLDY    71  55  56 SE3       30.19R
PORT HOPE        N/A     64  57  78 S5        30.17F
PORT HURON     CLEAR     61  57  88 CALM      30.22R
TRI CITIES     CLEAR     69  57  65 SE6       30.17F
YPSILANTI      CLEAR     67  63  87 SE7       30.20S
$$
MIZ043>046-050>051-056>058-064>065-071>073-077>080-260300-
SOUTHWEST LOWER MICHIGAN

CITY           SKY/WX    TMP DP  RH WIND       PRES   REMARKS
BATTLE CREEK   PTCLDY    73  55  53 SE7       30.17F
BENTON HARBOR  PTCLDY    67  57  70 CALM      30.16R
BIG RAPIDS     PTCLDY    69  52  54 SW3       30.15F
COLDWATER      CLEAR     67  57  69 CALM      30.18S
HOLLAND        PTCLDY    67  61  81 CALM      30.16R
GRAND RAPIDS   MOCLDY    69  57  65 SE5       30.16R
KALAMAZOO      CLOUDY    71  56  58 SE3       30.16S
MARSHALL       CLEAR     67  56  66 SE5       30.17S
MOUNT PLEASANT PTCLDY    71  54  55 SE3       30.16R
MUSKEGON       MOCLDY    67  58  72 SW3       30.15R
STURGIS        CLEAR     69  58  67 SE7       30.16S
$$
MIZ016>042-260300-
NORTHERN LOWER MICHIGAN

CITY           SKY/WX    TMP DP  RH WIND       PRES   REMARKS
ALPENA         CLEAR     64  55  72 SE6       30.16R
BEAVER ISLAND  PTCLDY    65  60  81 CALM      30.11F
BELLAIRE       CLOUDY    64  61  89 CALM      30.12S
CADILLAC       CLEAR     71  55  57 SE7       30.15F
CHARLEVOIX     PTCLDY    68  59  74 CALM      30.15S
GAYLORD        CLOUDY    70  53  54 S7        30.15S
HOUGHTON LAKE  CLOUDY    70  53  54 S8        30.17S
MANISTEE       CLEAR     67  59  75 SW3       30.12S
OSCODA         CLEAR     67  54  63 S3        30.16R
PELLSTON       CLOUDY    63  58  83 CALM      30.12S
TRAVERSE CITY  MOCLDY    73  57  57 CALM      30.10F
LUDINGTON      CLOUDY    69  55  62 S7        30.12S
$$
MIZ007>008-015-260300-
EASTERN UPPER MICHIGAN

CITY           SKY/WX    TMP DP  RH WIND       PRES   REMARKS
KINROSS        PTCLDY    63  54  72 SE6       30.13S
MACKINAC ISLAN PTCLDY    65  60  84 SE5       30.11S
NEWBERRY         N/A     63  62  96 S8        30.08F FOG
S. S. MARIE    CLOUDY    65  55  70 SE7       30.12R
$$
MIZ004>006-011>014-085-260300-
CENTRAL UPPER MICHIGAN

CITY           SKY/WX    TMP DP  RH WIND       PRES   REMARKS
MANISTIQUE     MOCLDY    67  61  81 SW10G21   30.08S
ESCANABA       CLOUDY    70  60  70 S12       30.07R
MENOMINEE      MOCLDY    70  59  68 SW10      30.09R
SAWYER-GWINN   MOCLDY    68  61  77 S14       30.04S
$$
MIZ001>003-009>011-084-260300-
WESTERN UPPER MICHIGAN

CITY           SKY/WX    TMP DP  RH WIND       PRES   REMARKS
IRON MOUNTAIN  CLOUDY    69  60  73 S7        30.05S
HOUGHTON       CLOUDY    72  55  55 S13       29.95S
COPPER HARBOR    N/A     73  54  51 SW13G22   29.91F
IRONWOOD       CLOUDY    70  62  76 S10G17    29.97R
$$

ABBREVIATIONS USED IN REMARKS
   TC - TEMPERATURE IN CELSIUS
  WCI - WIND CHILL INDEX
   HX - HEAT INDEX
  VSB - VISIBILITY




USA.gov is the U.S. government's official web portal to all federal, state and local government web resources and services.